This demonstration page uses our WeatherBlox Daily Observations layout. Learn more.

Left ArrowRight Arrow

39.08367, -84.50855

Hourly Observations for February 24, 2016

Temp ( °F °C ) Dew Point ( °F °C ) Humidity (%) Winds ( mph kmh ) Pressure ( in mb ) Visibility ( mi km ) Precip ( " mm )
12:53 am 00:53 Cloudy with Rain 45 7.2 42 5.6 90 90 NE 10 17 29.68 1005 4 6 0.12 3.05
1:40 am 01:40 Cloudy with Heavy Rain 45 7 43 6 93 93 NE 10 17 29.68 1005 3 5 N/A
1:53 am 01:53 Cloudy with Rain 44 6.7 43 6.1 96 96 NNE 8 13 29.62 1003 4 6 0.14 3.56
2:17 am 02:17 Cloudy with Rain 45 7.2 43 6.1 93 93 NE 10 17 29.62 1003 4 6 0.07 1.78
2:37 am 02:37 Cloudy with Rain 45 7.2 43 6.1 93 93 NE 10 17 29.59 1002 4 6 0.10 2.54
2:53 am 02:53 Cloudy with Rain 45 7.2 44 6.7 97 97 NE 9 15 29.54 1000 5 8 0.13 3.30
3:32 am 03:32 Cloudy with Rain 45 7.2 44 6.7 97 97 NE 10 17 29.53 1000 4 6 0.15 3.81
3:53 am 03:53 Cloudy with Heavy Rain 45 7.2 45 7.2 100 100 NE 10 17 29.47 998 3 4 0.25 6.35
4:05 am 04:05 Cloudy with Light Rain 46 7.8 45 7.2 96 96 NE 10 17 29.50 999 6 10 0.02 0.51
4:13 am 04:13 Cloudy with Light Rain 46 7.8 45 7.2 96 96 ENE 10 17 29.50 999 9 14 0.02 0.51
4:53 am 04:53 Cloudy with Rain 46 7.8 45 7.2 96 96 NE 10 17 29.42 996 3 5 0.09 2.29
5:18 am 05:18 Cloudy with Light Rain 46 8 45 7 93 93 NE 12 19 29.41 996 4 6 N/A
5:45 am 05:45 Cloudy with Rain 46 7.8 46 7.8 100 100 NNE 8 13 29.41 996 4 6 0.08 2.03
5:53 am 05:53 Cloudy with Rain 47 8.3 46 7.8 97 97 NE 7 11 29.37 995 4 6 0.09 2.29
6:32 am 06:32 Cloudy with Rain 46 8 46 8 100 100 NE 7 11 29.38 995 6 10 N/A
6:46 am 06:46 Cloudy with Light Rain 48 9 46 8 94 94 NNE 6 9 29.32 993 7 11 N/A
6:53 am 06:53 Cloudy with Light Rain 48 8.9 48 8.9 100 100 NE 6 9 29.32 993 9 14 0.09 2.29
7:53 am 07:53 Cloudy 49 9.4 49 9.4 100 100 NE 7 11 29.28 991 10 16 0.09 2.29
8:13 am 08:13 Cloudy 50 10 50 10 100 100 ENE 7 11 29.26 991 10 16 N/A
8:53 am 08:53 Cloudy with Light Rain 51 10.6 50 10 96 96 N N/A 29.26 991 8 13 N/A
9:41 am 09:41 Cloudy with Light Rain 54 12.2 51 10.6 90 90 ESE 3 6 29.23 990 8 13 0.01 0.25
9:53 am 09:53 Mostly Cloudy 54 12.2 52 11.1 93 93 N N/A 29.23 990 10 16 0.01 0.25
10:04 am 10:04 Cloudy 55 13 52 11 88 88 N N/A 29.23 990 10 16 N/A
10:13 am 10:13 Cloudy 55 12.8 52 11.1 90 90 VRB 3 6 29.23 990 10 16 N/A
10:53 am 10:53 Mostly Cloudy 56 13.3 52 11.1 87 87 S 9 15 29.22 989 10 16 N/A
11:53 am 11:53 Cloudy 57 13.9 52 11.1 83 83 SE 9 15 29.18 988 10 16 N/A
12:53 pm 12:53 Mostly Cloudy with Rain 56 13.3 53 11.7 90 90 SSE 16 26 29.16 987 3 5 0.05 1.27
1:53 pm 13:53 Cloudy 57 14 N/A N/A SSW 17 28 29.15 987 10 16 0.06 1.52
2:53 pm 14:53 Cloudy 54 12.2 54 12.2 100 100 SW 28 44 29.19 989 10 16 0.01 0.25
3:27 pm 15:27 Cloudy 51 10.6 51 10.6 100 100 SSW 24 39 29.23 990 10 16 N/A
3:53 pm 15:53 Cloudy 48 9 43 6 82 82 SW 28 44 29.26 991 10 16 N/A
4:53 pm 16:53 Cloudy 47 8.3 38 3.3 71 71 SSW 24 39 29.27 991 10 16 N/A
5:11 pm 17:11 Cloudy 46 7.8 38 3.3 73 73 SW 15 24 29.29 992 10 16 N/A
5:46 pm 17:46 Cloudy 45 7.2 38 3.3 77 77 SW 13 20 29.32 993 10 16 N/A
5:53 pm 17:53 Cloudy with Light Rain 45 7.2 38 3.3 77 77 WSW 18 30 29.29 992 10 16 N/A
6:53 pm 18:53 Cloudy with Light Rain 42 5.6 36 2.2 79 79 SW 18 30 29.33 993 9 14 0.01 0.25
7:53 pm 19:53 Cloudy with Light Rain 38 3.3 36 2.2 93 93 SSW 16 26 29.36 994 10 16 0.03 0.76
8:53 pm 20:53 Cloudy with Light Rain 38 3.3 36 2.2 93 93 SSW 14 22 29.36 994 9 14 N/A
9:06 pm 21:06 Cloudy with Light Rain 38 3.3 36 2.2 93 93 SW 12 19 29.41 996 8 13 N/A
9:53 pm 21:53 Cloudy with Light Rain 36 2.2 36 2.2 100 100 W 14 22 29.41 996 9 14 0.01 0.25
10:18 pm 22:18 Cloudy with Light Rain 36 2 N/A N/A W 13 20 29.44 997 10 16 N/A
10:53 pm 22:53 Cloudy with Light Rain 36 2 N/A N/A W 15 24 29.45 997 10 16 0.01 0.25
11:53 pm 23:53 Cloudy 36 2 N/A N/A W 21 33 29.49 999 10 16 0.02 0.51

Powered by AerisWeather